,,,PA_Meas_PMT16A,,PR_Meas_QMR101_102,,RH_Meas_QMH101,,SR_Meas_QMS101,,TA_Meas_QMH101,,GenWind,,GenWind,
date,time,status,PA,status,PR,status,RH,status,SR,status,TA,status,DirAvg,status,SpdAvg,
2012-04-30, 00:00:04,VALID,1009.36,VALID,0,VALID,104,VALID,0,VALID,24.415,VALID,224,VALID,0.956641,
2012-04-30, 00:01:04,VALID,1009.35,VALID,0,VALID,104,VALID,0,VALID,24.415,VALID,225,VALID,0.850781,
2012-04-30, 00:02:04,VALID,1009.35,VALID,0,VALID,104,VALID,0,VALID,24.415,VALID,220,VALID,0.930469,
2012-04-30, 00:03:04,VALID,1009.34,VALID,0,VALID,104,VALID,0,VALID,24.3956,VALID,240,VALID,0.726172,
2012-04-30, 00:04:04,VALID,1009.35,VALID,0,VALID,104,VALID,0,VALID,24.3956,VALID,210,VALID,0.842969,
2012-04-30, 00:05:04,VALID,1009.34,VALID,0,VALID,104,VALID,0,VALID,24.3956,VALID,237,VALID,1.02461,
2012-04-30, 00:06:04,VALID,1009.35,VALID,0,VALID,104,VALID,0,VALID,24.3566,VALID,204,VALID,0.866406,
2012-04-30, 00:07:04,VALID,1009.32,VALID,0,VALID,104,VALID,0,VALID,24.3566,VALID,213,VALID,0.758594,
2012-04-30, 00:08:04,VALID,1009.34,VALID,0,VALID,104,VALID,0,VALID,24.3566,VALID,205,VALID,0.983594,
2012-04-30, 00:09:04,VALID,1009.34,VALID,0,VALID,104,VALID,0,VALID,24.3566,VALID,238,VALID,0.475391,
2012-04-30, 00:10:04,VALID,1009.32,VALID,0,VALID,104,VALID,0,VALID,24.3352,VALID,265,VALID,0.441016,
2012-04-30, 00:11:04,VALID,1009.32,VALID,0,VALID,104,VALID,0,VALID,24.3371,VALID,246,VALID,0.266016,
2012-04-30, 00:12:04,VALID,1009.36,VALID,0,VALID,104,VALID,0,VALID,24.3371,VALID,246,VALID,0.0730469,
2012-04-30, 00:13:04,VALID,1009.32,VALID,0,VALID,104,VALID,0,VALID,24.3371,VALID,246,VALID,0.0894531,
2012-04-30, 00:14:04,VALID,1009.28,VALID,0,VALID,104,VALID,0,VALID,24.3371,VALID,246,VALID,0.268359,
2012-04-30, 00:15:04,VALID,1009.29,VALID,0,VALID,104,VALID,0,VALID,24.3371,VALID,246,VALID,0.200391,
2012-04-30, 00:16:04,VALID,1009.26,VALID,0,VALID,104,VALID,0,VALID,24.2981,VALID,246,VALID,0.308594,
2012-04-30, 00:17:04,VALID,1009.23,VALID,0,VALID,104,VALID,0,VALID,24.2981,VALID,238,VALID,0.484766,
2012-04-30, 00:18:04,VALID,1009.22,VALID,0,VALID,104,VALID,0,VALID,24.2786,VALID,235,VALID,0.232031,
2012-04-30, 00:19:04,VALID,1009.24,VALID,0,VALID,104,VALID,0,VALID,24.2981,VALID,235,VALID,0.0753906,
2012-04-30, 00:20:04,VALID,1009.21,VALID,0,VALID,104,VALID,0,VALID,24.2981,VALID,235,VALID,0,
2012-04-30, 00:21:04,VALID,1009.19,VALID,0,VALID,104,VALID,0,VALID,24.2786,VALID,235,VALID,0,
2012-04-30, 00:22:04,VALID,1009.17,VALID,0,VALID,104,VALID,0,VALID,24.2981,VALID,235,VALID,0,
2012-04-30, 00:23:04,VALID,1009.15,VALID,0,VALID,104,VALID,0,VALID,24.2981,VALID,235,VALID,0,
2012-04-30, 00:24:04,VALID,1009.15,VALID,0,VALID,104,VALID,0,VALID,24.2768,VALID,244,VALID,0.728906,
2012-04-30, 00:25:04,VALID,1009.14,VALID,0,VALID,104,VALID,0,VALID,24.3176,VALID,248,VALID,0.0585938,
2012-04-30, 00:26:04,VALID,1009.09,VALID,0,VALID,104,VALID,0,VALID,24.3176,VALID,248,VALID,0,
2012-04-30, 00:27:04,VALID,1009.08,VALID,0,VALID,104,VALID,0,VALID,24.2981,VALID,248,VALID,0.151172,
2012-04-30, 00:28:04,VALID,1009.05,VALID,0,VALID,104,VALID,0,VALID,24.2981,VALID,248,VALID,0,
2012-04-30, 00:29:04,VALID,1009.06,VALID,0,VALID,104,VALID,0,VALID,24.2768,VALID,248,VALID,0,
2012-04-30, 00:30:04,VALID,1009.03,VALID,0,VALID,104,VALID,0,VALID,24.2786,VALID,248,VALID,0.0046875,
2012-04-30, 00:31:04,VALID,1009.03,VALID,0,VALID,104,VALID,0,VALID,24.2981,VALID,248,VALID,0.170703,
2012-04-30, 00:32:04,VALID,1009,VALID,0,VALID,104,VALID,0,VALID,24.2786,VALID,248,VALID,0.110937,
2012-04-30, 00:33:04,VALID,1009,VALID,0,VALID,104,VALID,0,VALID,24.2786,VALID,248,VALID,0,
2012-04-30, 00:34:04,VALID,1008.98,VALID,0,VALID,104,VALID,0,VALID,24.2786,VALID,248,VALID,0,
2012-04-30, 00:35:04,VALID,1008.94,VALID,0,VALID,104,VALID,0,VALID,24.2786,VALID,248,VALID,0,
2012-04-30, 00:36:04,VALID,1008.94,VALID,0,VALID,104,VALID,0,VALID,24.2591,VALID,248,VALID,0,
2012-04-30, 00:37:04,VALID,1008.96,VALID,0,VALID,104,VALID,0,VALID,24.2591,VALID,248,VALID,0,
2012-04-30, 00:38:04,VALID,1008.95,VALID,0,VALID,104,VALID,0,VALID,24.2396,VALID,248,VALID,0,
2012-04-30, 00:39:04,VALID,1008.94,VALID,0,VALID,104,VALID,0.112112,VALID,24.2591,VALID,248,VALID,0,
2012-04-30, 00:40:04,VALID,1008.93,VALID,0,VALID,104,VALID,0,VALID,24.2378,VALID,248,VALID,0,
2012-04-30, 00:41:04,VALID,1008.92,VALID,0,VALID,104,VALID,0,VALID,24.2573,VALID,248,VALID,0,
2012-04-30, 00:42:04,VALID,1008.89,VALID,0,VALID,104,VALID,0,VALID,24.2396,VALID,248,VALID,0,
2012-04-30, 00:43:04,VALID,1008.87,VALID,0,VALID,104,VALID,0,VALID,24.2396,VALID,248,VALID,0,
2012-04-30, 00:44:04,VALID,1008.86,VALID,0,VALID,104,VALID,0,VALID,24.2202,VALID,248,VALID,0,
2012-04-30, 00:45:04,VALID,1008.86,VALID,0,VALID,104,VALID,0,VALID,24.2396,VALID,248,VALID,0,
2012-04-30, 00:46:04,VALID,1008.86,VALID,0,VALID,104,VALID,0,VALID,24.2591,VALID,248,VALID,0,
2012-04-30, 00:47:04,VALID,1008.85,VALID,0,VALID,104,VALID,0,VALID,24.2183,VALID,248,VALID,0,
2012-04-30, 00:48:04,VALID,1008.89,VALID,0,VALID,104,VALID,0.112112,VALID,24.2183,VALID,248,VALID,0,
2012-04-30, 00:49:04,VALID,1008.93,VALID,0,VALID,104,VALID,0,VALID,24.2378,VALID,248,VALID,0,
2012-04-30, 00:50:04,VALID,1008.98,VALID,0,VALID,104,VALID,0,VALID,24.2591,VALID,248,VALID,0.21875,
2012-04-30, 00:51:04,VALID,1009.01,VALID,0,VALID,104,VALID,0,VALID,24.2963,VALID,199,VALID,0.544141,
2012-04-30, 00:52:04,VALID,1009.06,VALID,0,VALID,104,VALID,0,VALID,24.3352,VALID,132,VALID,0.580859,
2012-04-30, 00:53:04,VALID,1009.1,VALID,0,VALID,104,VALID,0,VALID,24.3547,VALID,128,VALID,0.566016,
2012-04-30, 00:54:04,VALID,1009.13,VALID,0,VALID,104,VALID,0,VALID,24.3956,VALID,105,VALID,0.653516,
2012-04-30, 00:55:04,VALID,1009.19,VALID,0,VALID,104,VALID,0,VALID,24.3956,VALID,93,VALID,1.20625,
2012-04-30, 00:56:04,VALID,1009.19,VALID,0,VALID,104,VALID,0.112112,VALID,24.3352,VALID,81,VALID,1.23477,
2012-04-30, 00:57:04,VALID,1009.18,VALID,0,VALID,104,VALID,0,VALID,24.3176,VALID,105,VALID,1.12266,
2012-04-30, 00:58:04,VALID,1009.2,VALID,0,VALID,104,VALID,0,VALID,24.3176,VALID,90,VALID,1.11797,
2012-04-30, 00:59:04,VALID,1009.21,VALID,0,VALID,104,VALID,0,VALID,24.2981,VALID,89,VALID,1.03477,
2012-04-30, 01:00:04,VALID,1009.19,VALID,0,VALID,104,VALID,0,VALID,24.2786,VALID,86,VALID,0.724219,
2012-04-30, 01:01:04,VALID,1009.17,VALID,0,VALID,104,VALID,0,VALID,24.2768,VALID,80,VALID,0.462891,
2012-04-30, 01:02:04,VALID,1009.14,VALID,0,VALID,104,VALID,0,VALID,24.2786,VALID,57,VALID,0.8,
2012-04-30, 01:03:04,VALID,1009.13,VALID,0,VALID,104,VALID,0,VALID,24.2591,VALID,56,VALID,1.0793,
2012-04-30, 01:04:04,VALID,1009.1,VALID,0,VALID,104,VALID,0,VALID,24.2396,VALID,50,VALID,0.401563,
2012-04-30, 01:05:04,VALID,1009.12,VALID,0,VALID,104,VALID,0,VALID,24.2396,VALID,50,VALID,0.479297,
2012-04-30, 01:06:04,VALID,1009.14,VALID,0,VALID,104,VALID,0,VALID,24.1988,VALID,50,VALID,0.384766,
2012-04-30, 01:07:04,VALID,1009.13,VALID,0,VALID,104,VALID,0.112112,VALID,24.1988,VALID,31,VALID,0.524219,
2012-04-30, 01:08:04,VALID,1009.12,VALID,0,VALID,104,VALID,0,VALID,24.1793,VALID,7,VALID,0.413281,
2012-04-30, 01:09:05,VALID,1009.11,VALID,0,VALID,104,VALID,0.112112,VALID,24.2007,VALID,7,VALID,0.239453,
2012-04-30, 01:10:04,VALID,1009.1,VALID,0,VALID,104,VALID,0,VALID,24.1988,VALID,7,VALID,0,
2012-04-30, 01:11:04,VALID,1009.1,VALID,0,VALID,104,VALID,0,VALID,24.2007,VALID,7,VALID,0,
2012-04-30, 01:12:05,VALID,1009.09,VALID,0,VALID,104,VALID,0,VALID,24.2007,VALID,7,VALID,0.0945313,
2012-04-30, 01:13:05,VALID,1009.11,VALID,0,VALID,104,VALID,0.112112,VALID,24.1812,VALID,7,VALID,0,
2012-04-30, 01:14:05,VALID,1009.12,VALID,0,VALID,104,VALID,0,VALID,24.1812,VALID,7,VALID,0,
2012-04-30, 01:15:05,VALID,1009.11,VALID,0,VALID,104,VALID,0,VALID,24.2007,VALID,7,VALID,0,
2012-04-30, 01:16:05,VALID,1009.08,VALID,0,VALID,104,VALID,0,VALID,24.2007,VALID,7,VALID,0,
2012-04-30, 01:17:05,VALID,1009.07,VALID,0,VALID,104,VALID,0,VALID,24.2007,VALID,7,VALID,0.262109,
2012-04-30, 01:18:05,VALID,1009.06,VALID,0,VALID,104,VALID,0,VALID,24.2007,VALID,7,VALID,0.120703,
2012-04-30, 01:19:05,VALID,1009.03,VALID,0,VALID,104,VALID,0.112112,VALID,24.1812,VALID,7,VALID,0,
2012-04-30, 01:20:05,VALID,1009.02,VALID,0,VALID,104,VALID,0,VALID,24.2202,VALID,7,VALID,0.0199219,
2012-04-30, 01:21:05,VALID,1009.01,VALID,0,VALID,104,VALID,0,VALID,24.2202,VALID,7,VALID,0.0183594,
2012-04-30, 01:22:05,VALID,1009,VALID,0,VALID,104,VALID,0,VALID,24.2007,VALID,7,VALID,0.260938,
2012-04-30, 01:23:05,VALID,1008.96,VALID,0,VALID,104,VALID,0,VALID,24.2202,VALID,7,VALID,0.157813,
2012-04-30, 01:24:05,VALID,1008.97,VALID,0,VALID,104,VALID,0,VALID,24.2202,VALID,7,VALID,0.289063,
2012-04-30, 01:25:05,VALID,1008.96,VALID,0,VALID,104,VALID,0,VALID,24.2202,VALID,7,VALID,0.4,
2012-04-30, 01:26:05,VALID,1008.94,VALID,0,VALID,104,VALID,0.112112,VALID,24.2202,VALID,7,VALID,0.484766,
2012-04-30, 01:27:05,VALID,1008.94,VALID,0,VALID,104,VALID,0,VALID,24.2202,VALID,7,VALID,0.264453,
2012-04-30, 01:28:05,VALID,1008.92,VALID,0,VALID,104,VALID,0,VALID,24.1988,VALID,7,VALID,0.313281,
2012-04-30, 01:29:05,VALID,1008.9,VALID,0,VALID,104,VALID,0.112112,VALID,24.2378,VALID,7,VALID,0.171094,
2012-04-30, 01:30:05,VALID,1008.9,VALID,0,VALID,104,VALID,0.112112,VALID,24.2378,VALID,7,VALID,0.0367187,
2012-04-30, 01:31:05,VALID,1008.89,VALID,0,VALID,104,VALID,0,VALID,24.2396,VALID,7,VALID,0.0363281,
2012-04-30, 01:32:05,VALID,1008.85,VALID,0,VALID,104,VALID,0.112112,VALID,24.2183,VALID,7,VALID,0.348437,
2012-04-30, 01:33:05,VALID,1008.88,VALID,0,VALID,104,VALID,0,VALID,24.2202,VALID,7,VALID,0,
2012-04-30, 01:34:05,VALID,1008.9,VALID,0,VALID,104,VALID,0.112112,VALID,24.2573,VALID,7,VALID,0.153125,
2012-04-30, 01:35:05,VALID,1008.93,VALID,0,VALID,104,VALID,0,VALID,24.2768,VALID,7,VALID,0.153516,
2012-04-30, 01:36:05,VALID,1008.94,VALID,0,VALID,104,VALID,0,VALID,24.2768,VALID,7,VALID,0,
2012-04-30, 01:37:05,VALID,1008.96,VALID,0,VALID,104,VALID,0,VALID,24.2768,VALID,7,VALID,0.154297,
2012-04-30, 01:38:05,VALID,1008.95,VALID,0,VALID,104,VALID,0,VALID,24.2981,VALID,7,VALID,0.402734,
2012-04-30, 01:39:05,VALID,1008.95,VALID,0,VALID,104,VALID,0,VALID,24.2981,VALID,7,VALID,0.412891,
2012-04-30, 01:40:05,VALID,1008.95,VALID,0,VALID,104,VALID,0,VALID,24.2786,VALID,7,VALID,0.658203,
2012-04-30, 01:41:05,VALID,1008.95,VALID,0,VALID,104,VALID,0,VALID,24.2591,VALID,7,VALID,0.650391,
2012-04-30, 01:42:05,VALID,1008.99,VALID,0,VALID,104,VALID,0,VALID,24.2396,VALID,7,VALID,0.644922,
2012-04-30, 01:43:05,VALID,1009,VALID,0,VALID,104,VALID,0,VALID,24.2396,VALID,7,VALID,0.404687,
2012-04-30, 01:44:05,VALID,1009,VALID,0,VALID,104,VALID,0,VALID,24.2396,VALID,7,VALID,0.454297,
2012-04-30, 01:45:05,VALID,1009,VALID,0,VALID,104,VALID,0,VALID,24.1988,VALID,7,VALID,0.298047,
2012-04-30, 01:46:05,VALID,1009.01,VALID,0,VALID,104,VALID,0,VALID,24.1988,VALID,7,VALID,0.391016,
2012-04-30, 01:47:05,VALID,1009.04,VALID,0,VALID,104,VALID,0,VALID,24.2007,VALID,7,VALID,0.487109,
2012-04-30, 01:48:05,VALID,1009.07,VALID,0,VALID,104,VALID,0,VALID,24.2007,VALID,7,VALID,0.490625,
2012-04-30, 01:49:05,VALID,1009.04,VALID,0,VALID,104,VALID,0,VALID,24.2415,VALID,7,VALID,0.44375,
2012-04-30, 01:50:05,VALID,1009.03,VALID,0,VALID,104,VALID,0,VALID,24.2202,VALID,7,VALID,0.512891,
2012-04-30, 01:51:05,VALID,1009.02,VALID,0,VALID,104,VALID,0,VALID,24.2202,VALID,7,VALID,0.4,
2012-04-30, 01:52:05,VALID,1008.98,VALID,0,VALID,104,VALID,0,VALID,24.2202,VALID,7,VALID,0.458203,
2012-04-30, 01:53:05,VALID,1008.96,VALID,0,VALID,104,VALID,0,VALID,24.2183,VALID,7,VALID,0.317578,
2012-04-30, 01:54:05,VALID,1008.96,VALID,0,VALID,104,VALID,0,VALID,24.2396,VALID,347,VALID,0.482031,
2012-04-30, 01:55:05,VALID,1008.98,VALID,0,VALID,104,VALID,0,VALID,24.2396,VALID,340,VALID,0.484766,
2012-04-30, 01:56:05,VALID,1008.96,VALID,0,VALID,104,VALID,0,VALID,24.2396,VALID,2,VALID,0.724609,
2012-04-30, 01:57:05,VALID,1008.99,VALID,0,VALID,104,VALID,0,VALID,24.2396,VALID,15,VALID,0.463281,
2012-04-30, 01:58:05,VALID,1008.98,VALID,0,VALID,104,VALID,0,VALID,24.2396,VALID,339,VALID,0.659766,
2012-04-30, 01:59:05,VALID,1008.97,VALID,0,VALID,104,VALID,0,VALID,24.2378,VALID,339,VALID,0.376172,
2012-04-30, 02:00:05,VALID,1008.98,VALID,0,VALID,104,VALID,0,VALID,24.2378,VALID,335,VALID,0.651563,
2012-04-30, 02:01:05,VALID,1008.97,VALID,0,VALID,104,VALID,0,VALID,24.2378,VALID,334,VALID,1.2293,
2012-04-30, 02:02:05,VALID,1008.98,VALID,0,VALID,104,VALID,0,VALID,24.2591,VALID,356,VALID,0.395312,
2012-04-30, 02:03:05,VALID,1008.97,VALID,0,VALID,104,VALID,0,VALID,24.2591,VALID,348,VALID,0.331641,
2012-04-30, 02:04:05,VALID,1008.99,VALID,0,VALID,104,VALID,0,VALID,24.2591,VALID,346,VALID,0.429688,
2012-04-30, 02:05:05,VALID,1008.99,VALID,0,VALID,104,VALID,0,VALID,24.2591,VALID,347,VALID,0.638672,
2012-04-30, 02:06:05,VALID,1009,VALID,0,VALID,104,VALID,0,VALID,24.2591,VALID,351,VALID,0.457031,
2012-04-30, 02:07:05,VALID,1009.01,VALID,0,VALID,104,VALID,0,VALID,24.2591,VALID,328,VALID,0.598437,
2012-04-30, 02:08:05,VALID,1008.99,VALID,0,VALID,104,VALID,0,VALID,24.2396,VALID,3,VALID,0.424609,
2012-04-30, 02:09:05,VALID,1009.02,VALID,0,VALID,104,VALID,0,VALID,24.2591,VALID,360,VALID,0.273438,
2012-04-30, 02:10:05,VALID,1009.02,VALID,0,VALID,104,VALID,0,VALID,24.2591,VALID,360,VALID,0.00585938,
2012-04-30, 02:11:05,VALID,1009.06,VALID,0,VALID,104,VALID,0,VALID,24.2378,VALID,360,VALID,0.219141,
2012-04-30, 02:12:05,VALID,1009.08,VALID,0,VALID,104,VALID,0,VALID,24.2591,VALID,360,VALID,0,
2012-04-30, 02:13:05,VALID,1009.06,VALID,0,VALID,104,VALID,0,VALID,24.2786,VALID,360,VALID,0.0625,
2012-04-30, 02:14:05,VALID,1009.06,VALID,0,VALID,104,VALID,0,VALID,24.2768,VALID,360,VALID,0,
2012-04-30, 02:15:05,VALID,1009.1,VALID,0,VALID,104,VALID,0,VALID,24.2573,VALID,360,VALID,0.115234,
2012-04-30, 02:16:05,VALID,1009.09,VALID,0,VALID,104,VALID,0,VALID,24.2573,VALID,360,VALID,0,
2012-04-30, 02:17:05,VALID,1009.1,VALID,0,VALID,104,VALID,0,VALID,24.2786,VALID,360,VALID,0,
2012-04-30, 02:18:05,VALID,1009.1,VALID,0,VALID,104,VALID,0,VALID,24.2981,VALID,360,VALID,0,
2012-04-30, 02:19:05,VALID,1009.1,VALID,0,VALID,104,VALID,0,VALID,24.2768,VALID,360,VALID,0,
2012-04-30, 02:20:05,VALID,1009.1,VALID,0,VALID,104,VALID,0,VALID,24.2963,VALID,360,VALID,0,
2012-04-30, 02:21:05,VALID,1009.09,VALID,0,VALID,104,VALID,0,VALID,24.3176,VALID,360,VALID,0,
2012-04-30, 02:22:05,VALID,1009.08,VALID,0,VALID,104,VALID,0,VALID,24.3371,VALID,360,VALID,0.164063,
2012-04-30, 02:23:05,VALID,1009.07,VALID,0,VALID,104,VALID,0,VALID,24.3176,VALID,360,VALID,0.180078,
2012-04-30, 02:24:05,VALID,1009.03,VALID,0,VALID,104,VALID,0,VALID,24.3158,VALID,360,VALID,0.492969,
2012-04-30, 02:25:05,VALID,1008.99,VALID,0,VALID,104,VALID,0,VALID,24.3352,VALID,360,VALID,0.544141,
2012-04-30, 02:26:05,VALID,1009,VALID,0,VALID,104,VALID,0,VALID,24.3566,VALID,360,VALID,0.209766,
2012-04-30, 02:27:05,VALID,1009.01,VALID,0,VALID,104,VALID,0,VALID,24.3547,VALID,360,VALID,0.419531,
2012-04-30, 02:28:05,VALID,1009.02,VALID,0,VALID,104,VALID,0,VALID,24.3566,VALID,360,VALID,0.356641,
2012-04-30, 02:29:05,VALID,1009.03,VALID,0,VALID,104,VALID,0,VALID,24.3352,VALID,360,VALID,0.459766,
2012-04-30, 02:30:05,VALID,1009.03,VALID,0,VALID,104,VALID,0,VALID,24.3371,VALID,360,VALID,0.620703,
2012-04-30, 02:31:05,VALID,1009.03,VALID,0,VALID,104,VALID,0,VALID,24.2981,VALID,360,VALID,0.583203,
2012-04-30, 02:32:05,VALID,1009.03,VALID,0,VALID,104,VALID,0,VALID,24.3176,VALID,360,VALID,0.503516,
2012-04-30, 02:33:05,VALID,1009.02,VALID,0,VALID,104,VALID,0,VALID,24.3566,VALID,360,VALID,0.607031,
2012-04-30, 02:34:05,VALID,1009.04,VALID,0,VALID,104,VALID,0,VALID,24.3352,VALID,187,VALID,0.667969,
2012-04-30, 02:35:05,VALID,1009.05,VALID,0,VALID,104,VALID,0,VALID,24.3158,VALID,187,VALID,0.748047,
2012-04-30, 02:36:05,VALID,1009.05,VALID,0,VALID,104,VALID,0,VALID,24.3371,VALID,188,VALID,0.61875,
2012-04-30, 02:37:05,VALID,1009.02,VALID,0,VALID,104,VALID,0,VALID,24.3352,VALID,188,VALID,0.00429688,
2012-04-30, 02:38:05,VALID,1008.99,VALID,0,VALID,104,VALID,0,VALID,24.3956,VALID,188,VALID,0.205469,
2012-04-30, 02:39:05,VALID,1008.94,VALID,0,VALID,104,VALID,0,VALID,24.3956,VALID,188,VALID,0.150391,
2012-04-30, 02:40:05,VALID,1008.94,VALID,0,VALID,104,VALID,0,VALID,24.3742,VALID,188,VALID,0,
2012-04-30, 02:41:05,VALID,1008.91,VALID,0,VALID,104,VALID,0,VALID,24.3956,VALID,188,VALID,0,
2012-04-30, 02:42:05,VALID,1008.85,VALID,0,VALID,104,VALID,0,VALID,24.3566,VALID,188,VALID,0,
2012-04-30, 02:43:05,VALID,1008.85,VALID,0,VALID,104,VALID,0,VALID,24.3352,VALID,188,VALID,0,
2012-04-30, 02:44:05,VALID,1008.82,VALID,0,VALID,104,VALID,0,VALID,24.3158,VALID,188,VALID,0,
2012-04-30, 02:45:05,VALID,1008.85,VALID,0,VALID,104,VALID,0,VALID,24.3371,VALID,188,VALID,0,
2012-04-30, 02:46:05,VALID,1008.84,VALID,0,VALID,104,VALID,0,VALID,24.3352,VALID,188,VALID,0,
2012-04-30, 02:47:05,VALID,1008.84,VALID,0,VALID,104,VALID,0,VALID,24.3371,VALID,188,VALID,0,
2012-04-30, 02:48:05,VALID,1008.86,VALID,0,VALID,104,VALID,0,VALID,24.3371,VALID,188,VALID,0,
2012-04-30, 02:49:05,VALID,1008.84,VALID,0,VALID,104,VALID,0,VALID,24.3371,VALID,188,VALID,0,
2012-04-30, 02:50:05,VALID,1008.88,VALID,0,VALID,104,VALID,0,VALID,24.3176,VALID,188,VALID,0,
2012-04-30, 02:51:05,VALID,1008.92,VALID,0,VALID,104,VALID,0,VALID,24.2963,VALID,188,VALID,0,
2012-04-30, 02:52:05,VALID,1008.99,VALID,0,VALID,104,VALID,0,VALID,24.2963,VALID,188,VALID,0,
2012-04-30, 02:53:05,VALID,1009.04,VALID,0,VALID,104,VALID,0,VALID,24.2768,VALID,188,VALID,0,
2012-04-30, 02:54:05,VALID,1009.06,VALID,0,VALID,104,VALID,0,VALID,24.2768,VALID,180,VALID,0,
2012-04-30, 02:55:05,VALID,1009.11,VALID,0,VALID,104,VALID,0.112112,VALID,24.2981,VALID,73,VALID,0.617578,
2012-04-30, 02:56:05,VALID,1009.11,VALID,0,VALID,104,VALID,0,VALID,24.3176,VALID,71,VALID,0.237891,
2012-04-30, 02:57:05,VALID,1009.12,VALID,0,VALID,104,VALID,0,VALID,24.2981,VALID,59,VALID,0.604297,
2012-04-30, 02:58:05,VALID,1009.15,VALID,0,VALID,104,VALID,0,VALID,24.2768,VALID,60,VALID,0.717578,
2012-04-30, 02:59:05,VALID,1009.18,VALID,0,VALID,104,VALID,0,VALID,24.3176,VALID,59,VALID,0.609766,
2012-04-30, 03:00:05,VALID,1009.2,VALID,0,VALID,104,VALID,0,VALID,24.2981,VALID,57,VALID,0.63125,
2012-04-30, 03:01:05,VALID,1009.17,VALID,0,VALID,104,VALID,0,VALID,24.3176,VALID,56,VALID,1.10742,
2012-04-30, 03:02:05,VALID,1009.21,VALID,0,VALID,104,VALID,0,VALID,24.2768,VALID,53,VALID,0.710938,
2012-04-30, 03:03:05,VALID,1009.23,VALID,0,VALID,104,VALID,0,VALID,24.3176,VALID,47,VALID,0.905469,
2012-04-30, 03:04:05,VALID,1009.21,VALID,0,VALID,104,VALID,0,VALID,24.2981,VALID,53,VALID,1.01992,
2012-04-30, 03:05:05,VALID,1009.21,VALID,0,VALID,104,VALID,0,VALID,24.2981,VALID,20,VALID,0.962891,
2012-04-30, 03:06:05,VALID,1009.2,VALID,0,VALID,104,VALID,0,VALID,24.2981,VALID,22,VALID,0.344141,
2012-04-30, 03:07:05,VALID,1009.22,VALID,0,VALID,104,VALID,0,VALID,24.2981,VALID,22,VALID,0.408203,
2012-04-30, 03:08:05,VALID,1009.24,VALID,0,VALID,104,VALID,0,VALID,24.3176,VALID,68,VALID,0.428125,
2012-04-30, 03:09:05,VALID,1009.28,VALID,0,VALID,104,VALID,0,VALID,24.3176,VALID,73,VALID,0.751172,
2012-04-30, 03:10:05,VALID,1009.26,VALID,0,VALID,104,VALID,0,VALID,24.3158,VALID,64,VALID,0.228906,
2012-04-30, 03:11:05,VALID,1009.29,VALID,0,VALID,104,VALID,0,VALID,24.3371,VALID,99,VALID,1.14414,
2012-04-30, 03:12:05,VALID,1009.29,VALID,0,VALID,104,VALID,0,VALID,24.3176,VALID,83,VALID,0.371875,
2012-04-30, 03:13:05,VALID,1009.28,VALID,0.5,VALID,104,VALID,0,VALID,24.3371,VALID,83,VALID,0.149609,
2012-04-30, 03:14:05,VALID,1009.29,VALID,0,VALID,104,VALID,0,VALID,24.3176,VALID,45,VALID,0.690234,
2012-04-30, 03:15:05,VALID,1009.26,VALID,0,VALID,104,VALID,0,VALID,24.2768,VALID,87,VALID,1.30703,
2012-04-30, 03:16:05,VALID,1009.26,VALID,0,VALID,104,VALID,0,VALID,24.1812,VALID,96,VALID,1.43984,
2012-04-30, 03:17:05,VALID,1009.22,VALID,0.5,VALID,104,VALID,0,VALID,24.1014,VALID,112,VALID,1.08906,
2012-04-30, 03:18:05,VALID,1009.19,VALID,0,VALID,104,VALID,0,VALID,23.965,VALID,107,VALID,0.924219,
2012-04-30, 03:19:05,VALID,1009.16,VALID,0.5,VALID,104,VALID,0,VALID,23.9473,VALID,131,VALID,0.766797,
2012-04-30, 03:20:05,VALID,1009.15,VALID,0,VALID,104,VALID,0,VALID,23.8481,VALID,141,VALID,1.61367,
2012-04-30, 03:21:05,VALID,1009.11,VALID,0,VALID,104,VALID,0,VALID,23.7914,VALID,160,VALID,1.55273,
2012-04-30, 03:22:05,VALID,1009.08,VALID,0,VALID,104,VALID,0,VALID,23.733,VALID,132,VALID,0.648828,
2012-04-30, 03:23:05,VALID,1009.07,VALID,0,VALID,104,VALID,0,VALID,23.694,VALID,139,VALID,0.725781,
2012-04-30, 03:24:05,VALID,1009.07,VALID,0,VALID,104,VALID,0,VALID,23.6356,VALID,125,VALID,1.35938,
2012-04-30, 03:25:05,VALID,1009.09,VALID,0,VALID,104,VALID,0,VALID,23.5966,VALID,111,VALID,2.10391,
2012-04-30, 03:26:05,VALID,1009.09,VALID,0,VALID,104,VALID,0,VALID,23.5381,VALID,83,VALID,0.983984,
2012-04-30, 03:27:05,VALID,1009.1,VALID,0,VALID,104,VALID,0,VALID,23.5186,VALID,67,VALID,0.740625,
2012-04-30, 03:28:05,VALID,1009.12,VALID,0,VALID,104,VALID,0,VALID,23.5186,VALID,62,VALID,0.928125,
2012-04-30, 03:29:05,VALID,1009.14,VALID,0,VALID,104,VALID,0,VALID,23.4974,VALID,90,VALID,1.5375,
2012-04-30, 03:30:05,VALID,1009.14,VALID,0,VALID,104,VALID,0,VALID,23.4407,VALID,129,VALID,1.82578,
2012-04-30, 03:31:05,VALID,1009.16,VALID,0,VALID,104,VALID,0,VALID,23.4602,VALID,112,VALID,1.17305,
2012-04-30, 03:32:05,VALID,1009.16,VALID,0,VALID,104,VALID,0,VALID,23.3823,VALID,65,VALID,1.28164,
2012-04-30, 03:33:05,VALID,1009.18,VALID,0,VALID,104,VALID,0.112112,VALID,23.2831,VALID,114,VALID,1.0082,
2012-04-30, 03:34:05,VALID,1009.18,VALID,0,VALID,104,VALID,0,VALID,23.2459,VALID,86,VALID,1.25703,
2012-04-30, 03:35:05,VALID,1009.17,VALID,0.5,VALID,104,VALID,0,VALID,23.1679,VALID,122,VALID,0.852734,
2012-04-30, 03:36:05,VALID,1009.15,VALID,0,VALID,104,VALID,0,VALID,23.1485,VALID,116,VALID,0.603906,
2012-04-30, 03:37:05,VALID,1009.13,VALID,0,VALID,104,VALID,0,VALID,23.129,VALID,105,VALID,0.779297,
2012-04-30, 03:38:05,VALID,1009.06,VALID,0,VALID,104,VALID,0,VALID,23.0316,VALID,131,VALID,1.45625,
2012-04-30, 03:39:05,VALID,1009.03,VALID,0,VALID,104,VALID,0,VALID,23.0121,VALID,132,VALID,1.20352,
2012-04-30, 03:40:05,VALID,1008.97,VALID,0,VALID,104,VALID,0,VALID,23.0121,VALID,145,VALID,1.18164,
2012-04-30, 03:41:05,VALID,1008.92,VALID,0,VALID,104,VALID,0,VALID,22.9731,VALID,109,VALID,1.06016,
2012-04-30, 03:42:05,VALID,1008.87,VALID,0,VALID,104,VALID,0,VALID,22.9731,VALID,149,VALID,0.606641,
2012-04-30, 03:43:05,VALID,1008.83,VALID,0,VALID,104,VALID,0,VALID,22.9536,VALID,131,VALID,1.22461,
2012-04-30, 03:44:05,VALID,1008.81,VALID,0,VALID,104,VALID,0.112112,VALID,22.9536,VALID,160,VALID,0.907812,
2012-04-30, 03:45:05,VALID,1008.78,VALID,0,VALID,104,VALID,0,VALID,22.9536,VALID,135,VALID,1.25156,
2012-04-30, 03:46:05,VALID,1008.77,VALID,0,VALID,104,VALID,0,VALID,22.9324,VALID,151,VALID,0.801953,
2012-04-30, 03:47:05,VALID,1008.74,VALID,0,VALID,104,VALID,0,VALID,22.9324,VALID,158,VALID,0.748828,
2012-04-30, 03:48:05,VALID,1008.72,VALID,0,VALID,104,VALID,0,VALID,22.9536,VALID,158,VALID,0.695703,
2012-04-30, 03:49:05,VALID,1008.72,VALID,0,VALID,104,VALID,0,VALID,22.9342,VALID,168,VALID,0.700391,
2012-04-30, 03:50:05,VALID,1008.72,VALID,0,VALID,104,VALID,0,VALID,22.9536,VALID,189,VALID,0.664844,
2012-04-30, 03:51:05,VALID,1008.73,VALID,0,VALID,104,VALID,0,VALID,22.9536,VALID,190,VALID,0.410156,
2012-04-30, 03:52:05,VALID,1008.71,VALID,0,VALID,104,VALID,0,VALID,22.9731,VALID,166,VALID,0.496875,
2012-04-30, 03:53:04,VALID,1008.72,VALID,0,VALID,104,VALID,0,VALID,22.9926,VALID,166,VALID,0.621875,
2012-04-30, 03:54:04,VALID,1008.74,VALID,0,VALID,104,VALID,0,VALID,23.0121,VALID,165,VALID,0.482422,
2012-04-30, 03:55:04,VALID,1008.71,VALID,0,VALID,104,VALID,0,VALID,22.9731,VALID,149,VALID,0.912109,
2012-04-30, 03:56:04,VALID,1008.75,VALID,0,VALID,104,VALID,0,VALID,22.9731,VALID,149,VALID,0.49375,
2012-04-30, 03:57:04,VALID,1008.76,VALID,0,VALID,104,VALID,0,VALID,22.9536,VALID,154,VALID,0.994531,